Home   Weather   Nairobi   Past weeks

Flag for Kenya Past Weather in Nairobi, Kenya — Yesterday and Last 2 Weeks

Now
64 °F

Partly cloudy.


Feels Like: 64 °F
Forecast: 59 / 73 °F
Wind: 9 mph from Northeast

Location: Kenyatta Airport

Current Time: Dec 3, 2016 at 1:35:59 am

Latest Report: Dec 3, 2016 at 1:00 am


Visibility: N/A

Pressure: 30.18 "Hg (24.78 "Hg at 1680m altitude)

Humidity: 94%

Dew Point: 63 °F

Location of NairobiLocation

Past Weather in Nairobi — Graph

°F

Nairobi Temperature Yesterday

Maximum temperature yesterday: 79 °F (at 2:30 pm)
Minimum temperature yesterday: 61 °F (at 5:30 am)
Average temperature yesterday: 68 °F

High & Low Weather Summary for the Past Weeks

 TemperatureHumidityPressure
High79 °F (Nov 23, 2:00 pm)100% (Nov 18, 12:00 am)30.39 "Hg (Nov 18, 12:00 am)
Low57 °F (Nov 25, 4:00 am)47% (Nov 27, 3:00 pm)30.01 "Hg (Nov 25, 3:30 pm)
Average67 °F83%30.15 "Hg
* Reported Nov 18 12:00 am — Dec 3 12:00 am, Nairobi, Weather by CustomWeather, © 2016

Note: Actual official high and low records may vary slightly from our data, if they occured in-between our weather recording intervals... More about our weather records

Advertising

Nairobi Weather History for the Previous 24 Hours

Scroll right to see more
 ConditionsComfort  
Time TempWeatherWind HumidityBarometerVisibility
12:00 am
Sat, Dec 3
64 °FThunderstorms. Passing clouds.12 mph94%30.21 "HgN/A
11:30 pm
Fri, Dec 2
64 °FThunderstorms. Passing clouds.14 mph94%30.39 "HgN/A
11:00 pm66 °FPartly cloudy.12 mph83%N/AN/A
10:30 pm66 °FPartly cloudy.9 mph83%30.21 "HgN/A
10:00 pm66 °FPartly cloudy.10 mph88%30.21 "HgN/A
9:30 pm66 °FPassing clouds.10 mph83%30.15 "HgN/A
9:00 pm66 °FPassing clouds.12 mph83%30.18 "HgN/A
8:30 pm66 °FPassing clouds.9 mph78%30.18 "HgN/A
8:00 pm66 °FPassing clouds.10 mph83%30.18 "HgN/A
7:30 pm68 °FPassing clouds.8 mph78%30.15 "HgN/A
7:00 pm68 °FPassing clouds.12 mph78%30.15 "HgN/A
6:30 pm70 °FPassing clouds.8 mph64%30.12 "HgN/A
6:00 pm73 °FPartly sunny.15 mph57%30.09 "HgN/A
5:30 pm75 °FPassing clouds.15 mph50%30.09 "HgN/A
5:00 pm75 °FPassing clouds.16 mph50%30.09 "HgN/A
4:30 pm77 °FPassing clouds.15 mph54%30.09 "HgN/A
3:30 pm77 °FScattered clouds.15 mph51%30.09 "HgN/A
3:00 pm77 °FScattered clouds.15 mph54%30.09 "HgN/A
2:30 pm79 °FScattered clouds.15 mph51%30.09 "HgN/A
2:00 pm77 °FPartly sunny.15 mph51%30.12 "HgN/A
1:30 pm77 °FScattered clouds.14 mph51%30.12 "HgN/A
1:00 pm77 °FScattered clouds.14 mph51%30.15 "HgN/A
12:30 pm77 °FScattered clouds.15 mph47%30.15 "HgN/A
12:00 pm75 °FPartly sunny.16 mph50%30.21 "HgN/A
11:00 am73 °FPartly sunny.16 mph69%30.21 "HgN/A
10:30 am72 °FPartly sunny.15 mph69%30.24 "HgN/A
10:00 am70 °FPartly sunny.13 mph69%30.24 "HgN/A
9:30 am66 °FPartly sunny.15 mph83%30.24 "HgN/A
9:00 am66 °FPartly sunny.13 mph83%30.24 "HgN/A
8:30 am64 °FBroken clouds.13 mph100%30.24 "HgN/A
8:00 am64 °FPartly sunny.8 mph88%30.24 "HgN/A
7:30 am63 °FPartly sunny.10 mph94%30.21 "HgN/A
7:00 am63 °FScattered clouds.6 mph88%30.21 "HgN/A
6:30 am61 °FPartly sunny.5 mph94%30.21 "HgN/A
6:00 am63 °FPassing clouds.8 mph94%30.18 "HgN/A
5:30 am61 °FPassing clouds.6 mph94%30.18 "HgN/A
5:00 am63 °FPassing clouds.7 mph94%30.18 "HgN/A
4:30 am63 °FPassing clouds.7 mph94%30.15 "HgN/A
4:00 am63 °FPassing clouds.6 mph94%30.15 "HgN/A
3:30 am63 °FPassing clouds.5 mph94%30.15 "HgN/A
3:00 am64 °FPartly cloudy.6 mph94%30.15 "HgN/A
2:30 am64 °FPassing clouds.7 mph88%30.15 "HgN/A
2:00 am64 °FPassing clouds.7 mph88%30.18 "HgN/A
1:30 am64 °FPassing clouds.9 mph94%30.18 "HgN/A
1:00 am64 °FPassing clouds.8 mph94%30.18 "HgN/A
Weather by CustomWeather, © 2016

See weather overviewHow to use our weather pages